Vertical_Velocity
1 9 -3 -7 -4 -4 4 7 2 -10 -14 12 -5 -2 -7 -1 3 2 1 -2 -1 1 -4 7 11 -1 0 9 -4 1 5 -4 -3 -2 -5 3 -1 2 -1 2 -1 2 1 1
7 -3 -11 1 3 6 3 4 -12 -13 -5 13 1 -7 -5 0 -5 -3 -5 -3 -9 8 8 9 5 -1 7 -3 -3 1 1 -1 -1 -2 -1 -1 3 0 2 4 2 1 -1 -1
4 -15 1 4 -0 8 -3 3 -4 6 -6 -2 9 4 7 -1 3 3 -0 -9 -4 -2 4 6 3 2 6 -1 -1 -3 -0 -4 -3 0 7 4 5 8 4 2 0 -3 -0 0
1 -10 3 2 0 7 6 -4 3 3 10 5 4 3 4 1 0 2 -2 -3 -9 -13 10 9 5 4 -9 -4 1 -1 2 0 2 4 -1 -5 -9 -4 -1 -2 -3 -2 -2 -3
-27 -0 1 3 -9 -0 -17 3 2 2 2 7 2 7 4 1 1 -3 -4 -5 -7 -4 4 -0 -4 0 -1 -2 -2 0 2 -0 5 -3 -2 -2 1 5 -1 -2 2 -1 -1 -2
-12 -9 14 -5 -2 -2 -1 4 4 3 2 6 -2 5 -3 -3 -15 -3 -2 -3 -8 10 13 -6 8 3 -1 -1 -2 0 5 -5 -1 -1 -1 -5 -1 2 -3 -1 0 -0 1 -2
-7 -5 -3 7 7 5 1 2 2 6 6 2 1 4 -9 -4 -2 -6 -6 -2 -4 -1 2 -1 -5 3 5 1 1 -0 1 -5 2 3 1 -3 -1 4 -2 -2 -4 -1 -1 -4
2 -9 2 2 5 8 0 4 4 3 2 3 1 -2 6 4 -1 -1 -1 -3 3 10 -2 3 5 5 0 2 -1 -3 -3 2 2 2 -1 1 3 0 0 -2 -2 -2 -0 -3
2 -3 -3 2 -0 10 -1 3 4 3 -0 4 -1 -3 2 -1 -0 3 2 3 4 5 6 -5 7 -3 -0 3 -2 -3 0 1 -1 -2 7 -1 0 1 -9 1 2 1 0 1
-4 1 -1 -4 4 -2 9 5 4 -1 1 -1 -2 -0 7 -2 0 2 5 0 1 3 -1 2 6 -4 -2 -2 2 1 3 -1 -3 6 2 -2 0 2 -1 6 0 -1 -2 -2
2 8 -11 3 1 3 5 1 2 4 2 4 1 7 6 2 -1 -2 -1 -1 0 2 -2 -4 -4 -4 21 7 -1 0 -2 -1 3 -5 -3 8 -1 5 4 -4 1 3 7 -2
1 3 0 -10 -7 1 2 -1 4 5 1 0 3 4 2 2 -1 0 -2 -1 5 -1 2 -3 -11 13 -26 8 10 3 -2 -5 -2 -2 2 -1 1 0 1 -6 -3 2 -3 -0
2 -3 -1 -2 8 4 2 -2 0 2 2 -2 5 3 1 -1 -0 -1 1 0 -2 -2 2 8 7 -30 -6 -13 2 8 1 -2 1 -1 -2 -0 -1 -0 -3 -1 1 0 6 -1
-0 1 5 2 3 5 -1 -2 -1 5 5 -3 -5 -2 0 0 1 0 -1 -0 5 -1 2 -4 -8 7 7 9 -26 7 7 1 -1 -1 -2 -1 -2 -5 -4 -0 1 1 3 4
3 1 7 -4 -1 4 2 1 -2 5 -5 10 -11 1 -4 3 2 2 2 1 1 1 1 -1 -2 -8 4 -2 -6 6 3 4 1 1 -1 -4 -2 0 2 3 3 2 2 2
-0 -2 2 -6 -2 3 2 -2 0 -0 -3 2 2 -7 1 -3 1 -1 1 0 1 0 1 3 10 11 11 -17 3 12 -3 0 4 3 -4 2 4 -2 -6 -1 1 4 -1 1
2 1 2 -7 1 -0 2 -11 -3 -3 0 1 3 -17 -1 -4 -0 1 3 0 3 3 4 5 -4 6 6 3 9 11 10 9 -1 3 4 0 -1 1 -2 -1 -0 0 -2 4
1 2 1 -2 1 5 -2 -0 3 1 -3 -1 2 -3 -0 3 3 0 -1 0 1 1 -3 -3 6 -1 -4 -0 -5 -4 -3 -0 6 7 4 3 -2 2 7 2 -1 3 0 0
2 2 -0 3 0 -10 -17 1 0 4 5 2 2 -2 -1 3 1 5 1 1 1 1 1 1 2 2 1 -1 1 -3 3 2 2 -1 2 2 1 5 4 -1 -2 2 4 1
1 2 7 3 3 1 5 2 1 1 3 2 1 1 1 -0 3 7 1 -1 2 -0 -2 0 -2 -1 3 1 1 2 0 1 1 3 5 4 6 3 2 5 3 -0 5 4
1 1 -1 -1 0 -5 3 0 0 10 10 1 2 3 0 -1 8 6 3 -2 -2 -2 -2 -1 -2 -1 -2 1 1 -1 1 2 -0 1 2 1 4 3 5 5 10 7 5 4
-2 0 -1 2 3 -2 3 -1 4 8 -1 4 0 2 -0 2 0 -3 0 3 3 1 -4 -4 1 2 0 1 -1 -1 -0 -1 -1 1 1 -1 -0 -1 2 3 5 6 5 4
1 -1 2 -0 -3 3 3 3 1 -2 -1 -1 -0 -2 2 4 4 2 -2 -4 0 4 6 9 -0 -7 -5 -2 0 2 -0 -0 -0 3 3 0 2 5 1 2 4 0 -2 8
0 -0 1 2 0 -3 -1 -0 1 3 4 -1 2 2 -0 -1 -1 3 5 4 -1 -0 -1 0 4 3 -0 -1 -8 -2 -4 0 -2 5 6 -0 -0 2 5 2 4 0 6 0
3 2 -1 -3 -1 -4 8 3 3 1 2 1 2 2 3 0 -3 -4 -4 -2 4 3 -4 -3 -2 -2 -2 -1 1 5 1 -2 1 -0 0 5 5 3 3 4 0 3 13 3
3 4 3 4 4 5 2 3 -2 -1 -1 1 -1 -0 3 2 3 -0 -1 -1 -2 -6 -5 -2 -2 -2 -4 -4 -2 -3 -4 -5 3 1 0 -1 0 0 1 -0 -3 -0 6 -1
Height
1468 1464 1454 1456 1450 1447 1443 1434 1426 1410 1413 1413 1397 1400 1401 1403 1405 1405 1408 1420 1409 1405 1404 1415 1421 1428 1435 1443 1451 1460 1465 1471 1480 1487 1493 1501 1506 1511 1515 1519 1522 1526 1529 1533
1461 1451 1438 1441 1439 1437 1435 1429 1412 1403 1404 1414 1400 1393 1392 1393 1401 1398 1401 1403 1397 1390 1400 1409 1416 1424 1431 1438 1448 1457 1462 1469 1477 1484 1491 1498 1504 1509 1514 1517 1520 1524 1528 1531
1448 1428 1431 1437 1435 1436 1428 1427 1412 1410 1409 1402 1389 1385 1386 1385 1393 1394 1398 1396 1401 1395 1397 1405 1414 1421 1428 1436 1443 1453 1460 1467 1474 1482 1490 1495 1501 1507 1511 1515 1517 1522 1526 1529
1438 1426 1425 1433 1433 1429 1424 1411 1412 1412 1410 1381 1378 1363 1371 1379 1382 1380 1384 1388 1391 1389 1388 1399 1408 1417 1425 1433 1441 1450 1458 1465 1473 1479 1485 1490 1496 1499 1504 1510 1515 1519 1523 1526
1432 1420 1418 1426 1423 1419 1412 1407 1407 1404 1398 1397 1383 1374 1354 1360 1365 1372 1375 1383 1383 1379 1380 1393 1403 1413 1421 1429 1437 1446 1454 1462 1469 1476 1482 1488 1493 1497 1501 1508 1512 1516 1520 1522
1427 1423 1419 1409 1407 1415 1412 1408 1406 1399 1394 1379 1368 1369 1347 1359 1352 1353 1361 1367 1374 1373 1372 1392 1403 1411 1418 1425 1434 1443 1449 1458 1465 1472 1478 1483 1489 1493 1498 1504 1508 1513 1516 1519
1417 1402 1405 1405 1398 1408 1410 1402 1384 1381 1376 1363 1371 1375 1348 1335 1340 1341 1343 1353 1365 1372 1379 1391 1400 1405 1413 1419 1428 1439 1447 1454 1460 1467 1473 1479 1485 1490 1494 1499 1503 1508 1511 1515
1421 1408 1401 1398 1397 1390 1386 1387 1384 1378 1365 1360 1373 1362 1341 1338 1333 1331 1340 1352 1364 1374 1383 1390 1397 1402 1409 1416 1424 1433 1441 1449 1456 1463 1469 1475 1481 1486 1490 1495 1500 1505 1508 1512
1422 1403 1397 1397 1397 1394 1381 1378 1382 1378 1363 1359 1345 1338 1339 1338 1340 1339 1347 1354 1366 1373 1380 1390 1394 1401 1408 1414 1421 1429 1437 1444 1451 1458 1464 1470 1476 1480 1484 1490 1496 1500 1504 1507
1430 1420 1395 1395 1394 1389 1389 1384 1380 1377 1374 1362 1340 1344 1341 1345 1346 1346 1354 1359 1366 1375 1379 1386 1392 1401 1409 1414 1420 1426 1433 1439 1445 1452 1459 1465 1471 1475 1480 1484 1489 1493 1498 1501
1436 1429 1401 1395 1389 1384 1384 1380 1379 1377 1377 1373 1360 1344 1351 1352 1349 1348 1352 1358 1364 1371 1374 1382 1385 1399 1408 1413 1418 1423 1430 1436 1441 1448 1454 1459 1464 1469 1474 1477 1482 1488 1493 1496
1432 1427 1410 1394 1384 1389 1389 1383 1376 1374 1382 1372 1371 1358 1351 1354 1356 1352 1354 1360 1366 1373 1376 1377 1386 1392 1408 1409 1415 1420 1426 1431 1437 1443 1449 1453 1458 1464 1467 1471 1476 1481 1485 1488
1438 1425 1406 1381 1387 1390 1387 1380 1380 1375 1376 1376 1374 1361 1355 1356 1358 1360 1357 1361 1367 1372 1378 1380 1380 1382 1403 1403 1411 1416 1421 1427 1432 1438 1443 1448 1452 1457 1460 1465 1469 1473 1478 1482
1438 1429 1417 1401 1397 1398 1392 1386 1382 1379 1376 1367 1365 1356 1352 1355 1355 1358 1361 1362 1365 1369 1374 1377 1379 1386 1390 1395 1402 1413 1416 1421 1427 1431 1436 1441 1446 1450 1454 1459 1464 1467 1470 1475
1436 1425 1413 1404 1397 1395 1393 1390 1386 1383 1376 1372 1364 1359 1355 1354 1362 1364 1365 1364 1366 1368 1371 1377 1381 1386 1388 1392 1399 1406 1410 1416 1421 1425 1429 1434 1439 1443 1448 1454 1458 1462 1464 1468
1433 1421 1416 1410 1399 1394 1388 1382 1380 1377 1374 1371 1369 1362 1358 1357 1360 1363 1366 1368 1369 1370 1372 1376 1380 1383 1388 1389 1393 1396 1405 1410 1416 1418 1421 1427 1432 1437 1442 1447 1452 1455 1458 1462
1430 1423 1416 1402 1392 1391 1384 1373 1366 1365 1364 1364 1365 1359 1361 1360 1362 1365 1368 1369 1369 1367 1370 1371 1378 1382 1383 1387 1393 1397 1399 1405 1408 1411 1416 1419 1424 1428 1434 1439 1444 1448 1451 1455
1422 1420 1416 1404 1402 1395 1364 1365 1365 1363 1363 1361 1358 1358 1361 1367 1370 1371 1371 1371 1373 1373 1375 1380 1377 1377 1379 1383 1386 1389 1395 1399 1402 1405 1408 1413 1417 1422 1426 1431 1436 1441 1444 1448
1420 1420 1411 1405 1394 1376 1371 1374 1376 1371 1373 1373 1370 1366 1365 1367 1371 1373 1374 1375 1373 1372 1373 1375 1375 1375 1376 1379 1382 1385 1389 1391 1396 1399 1402 1407 1412 1415 1419 1424 1429 1433 1437 1441
1418 1418 1416 1405 1399 1384 1377 1379 1379 1377 1374 1380 1378 1376 1373 1370 1365 1373 1376 1372 1372 1371 1369 1370 1371 1371 1372 1374 1377 1379 1382 1386 1390 1394 1398 1401 1405 1410 1414 1418 1421 1427 1431 1434
1412 1415 1411 1405 1397 1386 1381 1380 1379 1377 1390 1385 1384 1381 1378 1375 1380 1380 1380 1379 1377 1373 1372 1372 1371 1370 1371 1371 1372 1375 1379 1380 1384 1389 1391 1395 1398 1403 1407 1410 1414 1417 1421 1426
1400 1403 1403 1403 1397 1394 1387 1381 1383 1392 1390 1388 1385 1386 1385 1384 1383 1381 1378 1379 1378 1378 1376 1372 1371 1371 1371 1372 1372 1374 1375 1377 1381 1384 1386 1390 1395 1398 1400 1403 1407 1410 1414 1417
1401 1396 1394 1397 1391 1391 1392 1393 1393 1393 1392 1389 1387 1385 1383 1382 1383 1383 1383 1380 1378 1380 1378 1375 1372 1372 1372 1373 1373 1374 1375 1378 1381 1383 1382 1386 1388 1391 1394 1398 1402 1406 1409 1412
1398 1401 1399 1396 1389 1392 1393 1393 1394 1393 1392 1390 1389 1386 1385 1384 1383 1383 1383 1382 1380 1378 1375 1374 1372 1367 1367 1367 1369 1373 1375 1378 1379 1381 1379 1383 1387 1388 1392 1395 1399 1403 1406 1410
1398 1401 1396 1393 1391 1391 1392 1395 1393 1391 1390 1389 1388 1388 1388 1387 1386 1384 1382 1379 1378 1377 1375 1373 1372 1374 1373 1374 1376 1375 1375 1378 1380 1380 1383 1385 1387 1388 1391 1394 1399 1401 1406 1408
1402 1404 1396 1393 1405 1404 1396 1395 1392 1391 1388 1387 1386 1386 1387 1387 1386 1386 1385 1383 1381 1380 1378 1378 1378 1378 1378 1379 1378 1377 1379 1382 1381 1380 1382 1385 1387 1389 1391 1394 1398 1403 1406 1408